Location: Bessat
(45.8735°N, 1.9924°E)
Time: 04:08:49
(UTC+00:00)

Okean 1 - Pass Details

Date: 11 May 2021
Orbit: 537 x 555 km, 82.5° (Epoch: 14 June)

Event Time Altitude Azimuth Distance (km) Brightness Sun altitude
Exits shadow 22:30:01 55° 54° (NE) 667 3.7 -23.6°
Drops below altitude 10° 22:33:24 10° 15° (NNE) 1,824 6.7 -23.8°
Sets 22:35:35 0° 12° (NNE) 2,719 7.8 -23.9°
